Overview Statistics Trail Chart Weather Telemetry Raw packets
 

This is the latest recevied weather packets stored in our database for station/object WP3OF. If no packets are shown the sender has not sent any weather packets the latest 10 day(s).

<< 14 15 16 17 18 19 20 >>
Time Temp. Humidity Pressure Rain* Wind** Luminosity Snow
1788534245 28.33° C 73% 1019.3 hPa 0 mm - - -
1788533943 28.33° C 72% 1019.4 hPa 0 mm - - -
1788533639 28.33° C 73% 1019.1 hPa 0 mm - - -
1788533334 28.33° C 75% 1019.3 hPa 0 mm - - -
1788533030 28.33° C 74% 1019.3 hPa 0 mm - - -
1788532725 28.33° C 73% 1019.4 hPa 0 mm - - -
1788532422 28.33° C 72% 1019.3 hPa 0 mm - - -
1788532118 28.89° C 70% 1019.1 hPa 0 mm - - -
1788531813 28.89° C 68% 1019.2 hPa 0 mm - - -
1788531507 28.33° C 71% 1019.2 hPa 0 mm - - -
1788531202 28.33° C 73% 1019.2 hPa 0 mm - - -
1788530899 28.33° C 72% 1019.2 hPa 0 mm - - -
1788530594 28.33° C 71% 1019.3 hPa 0 mm - - -
1788530293 27.78° C 71% 1019.1 hPa 0 mm - - -
1788529988 27.78° C 71% 1019.2 hPa 0 mm - - -
1788529685 28.89° C 68% 1019.1 hPa 0 mm - - -
1788529384 28.33° C 63% 1019.3 hPa 0 mm - - -
1788529079 28.33° C 67% 1019.1 hPa 0 mm - - -
1788528774 28.89° C 63% 1019.2 hPa 0 mm - - -
1788528474 28.33° C 65% 1019.2 hPa 0 mm - - -
1788528170 28.89° C 64% 1019.4 hPa 0 mm - - -
1788527868 28.33° C 63% 1019.1 hPa 0 mm - - -
1788527564 28.89° C 62% 1019 hPa 0 mm - - -
1788527264 28.89° C 62% 1019 hPa 0 mm - - -
1788526964 28.33° C 63% 1019.1 hPa 0 mm - - -

* Rain latest hour (hover to see other rain measurements)
** Current wind speed in m/s (hover to see current wind gust speed)